Year,Month,Day,Hour,Minute,Value (Times are PST for windspeed in km/hr)
2015,03,14,00,00,0.50
2015,03,14,00,01,0.70
2015,03,14,00,02,0.30
2015,03,14,00,03,0.00
2015,03,14,00,04,0.10
2015,03,14,00,05,0.40
2015,03,14,00,06,1.80
2015,03,14,00,07,3.10
2015,03,14,00,08,1.20
2015,03,14,00,09,1.90
2015,03,14,00,10,0.60
2015,03,14,00,11,1.30
2015,03,14,00,12,2.90
2015,03,14,00,13,2.70
2015,03,14,00,14,1.70
2015,03,14,00,15,1.40
2015,03,14,00,16,1.70
2015,03,14,00,17,1.50
2015,03,14,00,18,1.50
2015,03,14,00,19,3.00
2015,03,14,00,20,3.30
2015,03,14,00,21,1.80
2015,03,14,00,22,1.70
2015,03,14,00,23,1.40
2015,03,14,00,24,2.50
2015,03,14,00,25,2.30
2015,03,14,00,26,1.90
2015,03,14,00,27,2.50
2015,03,14,00,28,1.60
2015,03,14,00,29,3.10
2015,03,14,00,30,2.40
2015,03,14,00,31,1.30
2015,03,14,00,32,2.40
2015,03,14,00,33,2.40
2015,03,14,00,34,1.70
2015,03,14,00,35,1.70
2015,03,14,00,36,0.10
2015,03,14,00,37,0.90
2015,03,14,00,38,2.70
2015,03,14,00,39,3.30
2015,03,14,00,40,3.30
2015,03,14,00,41,4.60
2015,03,14,00,42,3.60
2015,03,14,00,43,4.30
2015,03,14,00,44,2.00
2015,03,14,00,45,0.70
2015,03,14,00,46,0.50
2015,03,14,00,47,3.00
2015,03,14,00,48,2.00
2015,03,14,00,49,3.30
2015,03,14,00,50,2.20
2015,03,14,00,51,2.00
2015,03,14,00,52,2.20
2015,03,14,00,53,0.10
2015,03,14,00,54,2.50
2015,03,14,00,55,2.60
2015,03,14,00,56,0.40
2015,03,14,00,57,0.10
2015,03,14,00,58,1.00
2015,03,14,00,59,1.30
2015,03,14,01,00,3.70
2015,03,14,01,01,3.20
2015,03,14,01,02,0.80
2015,03,14,01,03,1.90
2015,03,14,01,04,2.20
2015,03,14,01,05,5.10
2015,03,14,01,06,3.50
2015,03,14,01,07,4.50
2015,03,14,01,08,3.00
2015,03,14,01,09,2.30
2015,03,14,01,10,1.50
2015,03,14,01,11,1.30
2015,03,14,01,12,0.90
2015,03,14,01,13,0.20
2015,03,14,01,14,1.70
2015,03,14,01,15,3.90
2015,03,14,01,16,4.90
2015,03,14,01,17,6.30
2015,03,14,01,18,3.10
2015,03,14,01,19,3.30
2015,03,14,01,20,1.70
2015,03,14,01,21,2.20
2015,03,14,01,22,2.40
2015,03,14,01,23,1.10
2015,03,14,01,24,5.40
2015,03,14,01,25,4.00
2015,03,14,01,26,2.00
2015,03,14,01,27,5.80
2015,03,14,01,28,9.90
2015,03,14,01,29,8.70
2015,03,14,01,30,8.40
2015,03,14,01,31,5.20
2015,03,14,01,32,5.70
2015,03,14,01,33,6.30
2015,03,14,01,34,2.90
2015,03,14,01,35,2.40
2015,03,14,01,36,4.80
2015,03,14,01,37,3.40
2015,03,14,01,38,1.30
2015,03,14,01,39,2.20
2015,03,14,01,40,3.10
2015,03,14,01,41,1.50
2015,03,14,01,42,0.80
2015,03,14,01,43,1.30
2015,03,14,01,44,4.70
2015,03,14,01,45,3.40
2015,03,14,01,46,1.80
2015,03,14,01,47,0.00
2015,03,14,01,48,3.60
2015,03,14,01,49,1.90
2015,03,14,01,50,0.70
2015,03,14,01,51,1.10
2015,03,14,01,52,0.90
2015,03,14,01,53,1.40
2015,03,14,01,54,2.40
2015,03,14,01,55,1.70
2015,03,14,01,56,1.70
2015,03,14,01,57,1.70
2015,03,14,01,58,1.30
2015,03,14,01,59,1.60
2015,03,14,02,00,1.70
2015,03,14,02,01,2.70
2015,03,14,02,02,0.80
2015,03,14,02,03,0.50
2015,03,14,02,04,2.10
2015,03,14,02,05,2.90
2015,03,14,02,06,1.20
2015,03,14,02,07,3.20
2015,03,14,02,08,4.70
2015,03,14,02,09,2.60
2015,03,14,02,10,2.50
2015,03,14,02,11,5.60
2015,03,14,02,12,7.00
2015,03,14,02,13,5.40
2015,03,14,02,14,2.10
2015,03,14,02,15,3.90
2015,03,14,02,16,1.00
2015,03,14,02,17,7.00
2015,03,14,02,18,11.30
2015,03,14,02,19,3.00
2015,03,14,02,20,0.10
2015,03,14,02,21,0.30
2015,03,14,02,22,0.90
2015,03,14,02,23,1.30
2015,03,14,02,24,0.00
2015,03,14,02,25,1.60
2015,03,14,02,26,1.90
2015,03,14,02,27,1.60
2015,03,14,02,28,2.90
2015,03,14,02,29,3.30
2015,03,14,02,30,3.40
2015,03,14,02,31,3.40
2015,03,14,02,32,3.40
2015,03,14,02,33,2.60
2015,03,14,02,34,2.60
2015,03,14,02,35,4.60
2015,03,14,02,36,3.10
2015,03,14,02,37,5.40
2015,03,14,02,38,3.70
2015,03,14,02,39,2.70
2015,03,14,02,40,1.20
2015,03,14,02,41,3.40
2015,03,14,02,42,4.60
2015,03,14,02,43,4.50
2015,03,14,02,44,4.80
2015,03,14,02,45,3.90
2015,03,14,02,46,1.70
2015,03,14,02,47,2.60
2015,03,14,02,48,3.70
2015,03,14,02,49,1.90
2015,03,14,02,50,0.50
2015,03,14,02,51,0.90
2015,03,14,02,52,1.70
2015,03,14,02,53,8.20
2015,03,14,02,54,8.90
2015,03,14,02,55,4.90
2015,03,14,02,56,7.60
2015,03,14,02,57,6.60
2015,03,14,02,58,3.50
2015,03,14,02,59,5.70
2015,03,14,03,00,5.00
2015,03,14,03,01,2.90
2015,03,14,03,02,4.00
2015,03,14,03,03,4.40
2015,03,14,03,04,5.70
2015,03,14,03,05,7.90
2015,03,14,03,06,14.20
2015,03,14,03,07,9.10
2015,03,14,03,08,7.20
2015,03,14,03,09,8.20
2015,03,14,03,10,9.00
2015,03,14,03,11,3.20
2015,03,14,03,12,8.20
2015,03,14,03,13,5.80
2015,03,14,03,14,3.20
2015,03,14,03,15,7.30
2015,03,14,03,16,4.30
2015,03,14,03,17,9.20
2015,03,14,03,18,5.80
2015,03,14,03,19,4.20
2015,03,14,03,20,4.60
2015,03,14,03,21,8.00
2015,03,14,03,22,6.00
2015,03,14,03,23,7.10
2015,03,14,03,24,4.10
2015,03,14,03,25,4.00
2015,03,14,03,26,6.30
2015,03,14,03,27,14.80
2015,03,14,03,28,8.10
2015,03,14,03,29,10.30
2015,03,14,03,30,9.20
2015,03,14,03,31,6.50
2015,03,14,03,32,8.20
2015,03,14,03,33,5.80
2015,03,14,03,34,7.40
2015,03,14,03,35,7.20
2015,03,14,03,36,13.00
2015,03,14,03,37,12.70
2015,03,14,03,38,7.20
2015,03,14,03,39,6.10
2015,03,14,03,40,10.20
2015,03,14,03,41,12.60
2015,03,14,03,42,5.50
2015,03,14,03,43,6.90
2015,03,14,03,44,9.40
2015,03,14,03,45,6.00
2015,03,14,03,46,4.90
2015,03,14,03,47,6.60
2015,03,14,03,48,9.50
2015,03,14,03,49,6.70
2015,03,14,03,50,7.60
2015,03,14,03,51,8.50
2015,03,14,03,52,8.20
2015,03,14,03,53,5.10
2015,03,14,03,54,5.00
2015,03,14,03,55,10.10
2015,03,14,03,56,10.00
2015,03,14,03,57,7.90
2015,03,14,03,58,8.60
2015,03,14,03,59,4.80
2015,03,14,04,00,4.60
2015,03,14,04,01,12.60
2015,03,14,04,02,9.80
2015,03,14,04,03,9.50
2015,03,14,04,04,5.00
2015,03,14,04,05,4.90
2015,03,14,04,06,8.40
2015,03,14,05,02,8.50
2015,03,14,05,03,12.20
2015,03,14,05,04,9.20
2015,03,14,05,05,7.60
2015,03,14,05,06,10.20
2015,03,14,05,07,14.90
2015,03,14,05,08,9.60
2015,03,14,05,09,9.10
2015,03,14,05,10,4.20
2015,03,14,05,11,12.50
2015,03,14,05,12,8.80
2015,03,14,05,13,9.70
2015,03,14,05,14,8.20
2015,03,14,05,15,4.10
2015,03,14,05,16,13.40
2015,03,14,05,17,10.90
2015,03,14,05,18,7.40
2015,03,14,05,19,5.30
2015,03,14,05,20,4.90
2015,03,14,05,21,6.30
2015,03,14,05,22,9.20
2015,03,14,05,23,14.80
2015,03,14,05,24,12.20
2015,03,14,05,25,8.50
2015,03,14,05,26,11.00
2015,03,14,05,27,5.90
2015,03,14,05,28,3.70
2015,03,14,05,29,8.00
2015,03,14,05,30,16.30
2015,03,14,05,31,7.50
2015,03,14,05,32,12.10
2015,03,14,05,33,7.00
2015,03,14,05,34,12.50
2015,03,14,05,35,7.60
2015,03,14,05,36,12.90
2015,03,14,05,37,9.20
2015,03,14,05,38,9.50
2015,03,14,05,39,10.50
2015,03,14,05,40,9.20
2015,03,14,05,41,18.80
2015,03,14,05,42,7.80
2015,03,14,05,43,6.00
2015,03,14,05,44,9.10
2015,03,14,05,45,14.20
2015,03,14,05,46,14.40
2015,03,14,05,47,9.10
2015,03,14,05,48,10.30
2015,03,14,05,49,10.90
2015,03,14,05,50,7.20
2015,03,14,05,51,6.60
2015,03,14,05,52,12.20
2015,03,14,05,53,7.20
2015,03,14,05,54,10.90
2015,03,14,05,55,16.30
2015,03,14,05,56,11.70
2015,03,14,05,57,4.40
2015,03,14,05,58,8.50
2015,03,14,05,59,7.70
2015,03,14,06,00,14.80
2015,03,14,06,01,8.10
2015,03,14,06,02,8.30
2015,03,14,06,03,10.30
2015,03,14,06,04,10.80
2015,03,14,06,05,5.60
2015,03,14,06,06,11.30
2015,03,14,06,07,13.30
2015,03,14,06,08,7.10
2015,03,14,06,09,15.30
2015,03,14,06,10,11.70
2015,03,14,06,11,5.80
2015,03,14,06,12,12.50
2015,03,14,06,13,11.00
2015,03,14,06,14,6.80
2015,03,14,06,15,14.80
2015,03,14,06,16,12.10
2015,03,14,06,17,12.00
2015,03,14,06,18,13.00
2015,03,14,06,19,15.10
2015,03,14,06,20,10.70
2015,03,14,06,21,12.10
2015,03,14,06,22,11.80
2015,03,14,06,23,10.70
2015,03,14,06,24,9.10
2015,03,14,06,25,6.60
2015,03,14,06,26,5.40
2015,03,14,06,27,8.80
2015,03,14,06,28,7.50
2015,03,14,06,29,6.90
2015,03,14,06,30,4.10
2015,03,14,06,31,4.80
2015,03,14,06,32,9.70
2015,03,14,06,33,13.10
2015,03,14,06,34,5.50
2015,03,14,06,35,12.80
2015,03,14,06,36,5.20
2015,03,14,06,37,8.40
2015,03,14,06,38,9.90
2015,03,14,06,39,2.70
2015,03,14,06,40,11.30
2015,03,14,06,41,10.10
2015,03,14,06,42,7.60
2015,03,14,06,43,11.40
2015,03,14,06,44,8.30
2015,03,14,06,45,15.70
2015,03,14,06,46,11.40
2015,03,14,06,47,11.00
2015,03,14,06,48,16.50
2015,03,14,06,49,6.90
2015,03,14,06,50,6.90
2015,03,14,06,51,13.00
2015,03,14,06,52,5.60
2015,03,14,06,53,6.40
2015,03,14,06,54,9.50
2015,03,14,06,55,5.10
2015,03,14,06,56,10.70
2015,03,14,06,57,10.20
2015,03,14,06,58,5.10
2015,03,14,06,59,9.00
2015,03,14,07,00,8.70
2015,03,14,07,01,10.90
2015,03,14,07,02,6.60
2015,03,14,07,03,6.90
2015,03,14,07,04,6.70
2015,03,14,07,05,11.10
2015,03,14,07,06,4.80
2015,03,14,07,07,8.30
2015,03,14,07,08,14.90
2015,03,14,07,09,15.10
2015,03,14,07,10,14.10
2015,03,14,07,11,11.10
2015,03,14,07,12,12.80
2015,03,14,07,13,6.60
2015,03,14,07,14,4.90
2015,03,14,07,15,8.20
2015,03,14,07,16,7.40
2015,03,14,07,17,11.50
2015,03,14,07,18,13.90
2015,03,14,07,19,5.60
2015,03,14,07,20,9.20
2015,03,14,07,21,4.80
2015,03,14,07,22,9.40
2015,03,14,07,23,4.40
2015,03,14,07,24,7.80
2015,03,14,07,25,8.20
2015,03,14,07,26,5.60
2015,03,14,07,27,19.80
2015,03,14,07,28,9.10
2015,03,14,07,29,8.20
2015,03,14,07,30,6.60
2015,03,14,07,31,4.20
2015,03,14,07,32,6.90
2015,03,14,07,33,9.80
2015,03,14,07,34,9.10
2015,03,14,07,35,11.40
2015,03,14,07,36,10.30
2015,03,14,07,37,3.40
2015,03,14,07,38,6.30
2015,03,14,07,39,8.00
2015,03,14,07,40,10.10
2015,03,14,07,41,14.10
2015,03,14,07,42,11.80
2015,03,14,07,43,10.00
2015,03,14,07,44,12.40
2015,03,14,07,45,8.90
2015,03,14,07,46,6.80
2015,03,14,07,47,13.00
2015,03,14,07,48,10.90
2015,03,14,07,49,15.70
2015,03,14,07,50,10.50
2015,03,14,07,51,7.10
2015,03,14,07,52,9.90
2015,03,14,07,53,9.20
2015,03,14,07,54,11.60
2015,03,14,07,55,6.70
2015,03,14,07,56,9.70
2015,03,14,07,57,9.70
2015,03,14,07,58,12.50
2015,03,14,07,59,9.20
2015,03,14,08,00,9.80
2015,03,14,08,01,9.30
2015,03,14,08,02,10.00
2015,03,14,08,03,9.80
2015,03,14,08,04,8.20
2015,03,14,08,05,12.30
2015,03,14,08,06,3.90
2015,03,14,08,07,7.90
2015,03,14,08,08,10.00
2015,03,14,08,09,10.00
2015,03,14,08,10,6.00
2015,03,14,08,11,14.50
2015,03,14,08,12,6.60
2015,03,14,08,13,7.00
2015,03,14,08,14,6.10
2015,03,14,08,15,7.40
2015,03,14,08,16,10.10
2015,03,14,08,17,5.80
2015,03,14,08,18,10.70
2015,03,14,08,19,7.30
2015,03,14,08,20,11.00
2015,03,14,08,21,8.90
2015,03,14,08,22,12.90
2015,03,14,08,23,11.10
2015,03,14,08,24,10.70
2015,03,14,08,25,7.20
2015,03,14,08,26,9.70
2015,03,14,08,27,14.10
2015,03,14,08,28,17.30
2015,03,14,08,29,15.40
2015,03,14,08,30,13.60
2015,03,14,08,31,11.30
2015,03,14,08,32,13.20
2015,03,14,08,33,17.50
2015,03,14,08,34,12.20
2015,03,14,08,35,9.40
2015,03,14,08,36,16.00
2015,03,14,08,37,16.40
2015,03,14,08,38,8.00
2015,03,14,08,39,14.50
2015,03,14,08,40,12.80
2015,03,14,08,41,12.30
2015,03,14,08,42,7.60
2015,03,14,08,43,5.10
2015,03,14,08,44,6.60
2015,03,14,08,45,7.10
2015,03,14,08,46,9.40
2015,03,14,08,47,15.40
2015,03,14,08,48,11.00
2015,03,14,08,49,18.00
2015,03,14,08,50,13.10
2015,03,14,08,51,5.90
2015,03,14,08,52,7.60
2015,03,14,08,53,7.20
2015,03,14,08,54,5.40
2015,03,14,08,55,7.80
2015,03,14,08,56,12.20
2015,03,14,08,57,8.50
2015,03,14,08,58,8.50
2015,03,14,08,59,9.70
2015,03,14,09,00,12.90
2015,03,14,09,01,8.60
2015,03,14,09,02,8.60
2015,03,14,09,03,9.20
2015,03,14,09,04,8.60
2015,03,14,09,05,13.20
2015,03,14,09,06,12.20
2015,03,14,09,07,11.40
2015,03,14,09,08,11.40
2015,03,14,09,09,8.50
2015,03,14,09,10,6.60
2015,03,14,09,11,12.20
2015,03,14,09,12,9.50
2015,03,14,09,13,8.20
2015,03,14,09,14,4.40
2015,03,14,09,15,8.50
2015,03,14,09,16,12.80
2015,03,14,09,17,9.60
2015,03,14,09,18,10.10
2015,03,14,09,19,6.40
2015,03,14,09,20,9.20
2015,03,14,09,21,7.00
2015,03,14,09,22,13.40
2015,03,14,09,23,14.00
2015,03,14,09,24,14.20
2015,03,14,09,25,9.40
2015,03,14,09,26,14.70
2015,03,14,09,27,12.50
2015,03,14,09,28,12.80
2015,03,14,09,29,14.10
2015,03,14,09,30,9.20
2015,03,14,09,31,15.80
2015,03,14,09,32,16.30
2015,03,14,09,33,6.40
2015,03,14,09,34,8.50
2015,03,14,09,35,7.60
2015,03,14,09,36,7.90
2015,03,14,09,37,7.90
2015,03,14,09,38,11.60
2015,03,14,09,39,7.90
2015,03,14,09,40,11.00
2015,03,14,09,41,7.30
2015,03,14,09,42,5.70
2015,03,14,09,43,11.10
2015,03,14,09,44,13.20
2015,03,14,09,45,4.80
2015,03,14,09,46,9.40
2015,03,14,09,47,13.30
2015,03,14,09,48,8.80
2015,03,14,09,49,11.20
2015,03,14,09,50,11.90
2015,03,14,09,51,12.20
2015,03,14,09,52,7.60
2015,03,14,09,53,9.50
2015,03,14,09,54,9.20
2015,03,14,09,55,8.80
2015,03,14,09,56,9.10
2015,03,14,09,57,8.90
2015,03,14,09,58,10.70
2015,03,14,09,59,6.50
2015,03,14,10,00,4.40
2015,03,14,10,01,8.30
2015,03,14,10,02,10.80
2015,03,14,10,03,8.10
2015,03,14,10,04,8.10
2015,03,14,10,05,8.70
2015,03,14,10,06,7.10
2015,03,14,10,07,5.70
2015,03,14,10,08,4.90
2015,03,14,10,09,4.90
2015,03,14,10,10,9.80
2015,03,14,10,11,4.40
2015,03,14,10,12,8.30
2015,03,14,10,13,7.60
2015,03,14,10,14,5.80
2015,03,14,10,15,11.50
2015,03,14,10,16,5.40
2015,03,14,10,17,6.90
2015,03,14,10,18,6.60
2015,03,14,10,19,8.60
2015,03,14,10,20,11.30
2015,03,14,10,21,6.60
2015,03,14,10,22,4.60
2015,03,14,10,23,12.20
2015,03,14,10,24,12.60
2015,03,14,10,25,11.30
2015,03,14,10,26,6.10
2015,03,14,10,27,11.70
2015,03,14,10,28,10.30
2015,03,14,10,29,11.30
2015,03,14,10,30,10.60
2015,03,14,10,31,9.10
2015,03,14,10,32,12.20
2015,03,14,10,33,13.50
2015,03,14,10,34,12.30
2015,03,14,10,35,9.20
2015,03,14,10,36,8.90
2015,03,14,10,37,7.10
2015,03,14,10,38,4.10
2015,03,14,10,39,9.70
2015,03,14,10,40,15.10
2015,03,14,10,41,14.00
2015,03,14,10,42,7.20
2015,03,14,10,43,3.00
2015,03,14,10,44,10.50
2015,03,14,10,45,20.60
2015,03,14,10,46,24.30
2015,03,14,10,47,34.10
2015,03,14,10,48,30.20
2015,03,14,10,49,33.70
2015,03,14,10,50,33.50
2015,03,14,10,51,24.30
2015,03,14,10,52,27.10
2015,03,14,10,53,34.80
2015,03,14,10,54,25.30
2015,03,14,10,55,32.00
2015,03,14,10,56,29.30
2015,03,14,10,57,38.00
2015,03,14,10,58,45.50
2015,03,14,10,59,40.50
2015,03,14,11,00,26.80
2015,03,14,11,01,26.20
2015,03,14,11,02,30.20
2015,03,14,11,03,37.80
2015,03,14,11,04,29.50
2015,03,14,11,05,35.70
2015,03,14,11,06,22.20
2015,03,14,11,07,33.40
2015,03,14,11,08,30.70
2015,03,14,11,09,30.50
2015,03,14,11,10,30.90
2015,03,14,11,11,37.60
2015,03,14,11,12,46.90
2015,03,14,11,13,36.40
2015,03,14,11,14,32.40
2015,03,14,11,17,32.10
2015,03,14,11,18,31.20
2015,03,14,11,19,29.20
2015,03,14,11,20,33.00
2015,03,14,11,21,50.20
2015,03,14,11,22,30.50
2015,03,14,11,23,29.80
2015,03,14,11,24,25.30
2015,03,14,11,25,28.40
2015,03,14,11,26,28.90
2015,03,14,11,27,31.50
2015,03,14,11,28,15.80
2015,03,14,11,29,17.30
2015,03,14,11,30,18.00
2015,03,14,11,31,22.00
2015,03,14,11,32,8.30
2015,03,14,11,33,7.90
2015,03,14,11,34,8.60
2015,03,14,11,35,7.50
2015,03,14,11,36,3.10
2015,03,14,11,37,9.50
2015,03,14,11,38,12.20
2015,03,14,11,39,7.20
2015,03,14,11,40,5.80
2015,03,14,11,41,6.70
2015,03,14,11,42,8.30
2015,03,14,14,49,6.00
2015,03,14,14,50,6.10
2015,03,14,14,51,8.50
2015,03,14,14,52,6.50
2015,03,14,14,53,6.40
2015,03,14,14,54,7.20
2015,03,14,14,55,14.50
2015,03,14,14,56,11.90
2015,03,14,14,57,13.50
2015,03,14,14,58,10.70
2015,03,14,14,59,11.90
2015,03,14,15,00,14.40
2015,03,14,15,01,7.20
2015,03,14,15,02,7.40
2015,03,14,15,03,8.00
2015,03,14,15,04,10.50
2015,03,14,15,05,13.80
2015,03,14,15,06,11.40
2015,03,14,15,07,5.60
2015,03,14,15,08,10.80
2015,03,14,15,09,13.30
2015,03,14,15,10,10.90
2015,03,14,15,11,17.10
2015,03,14,15,12,14.00
2015,03,14,15,13,15.30
2015,03,14,15,14,8.40
2015,03,14,15,15,8.00
2015,03,14,15,16,9.30
2015,03,14,15,17,12.00
2015,03,14,15,18,12.00
2015,03,14,15,19,14.20
2015,03,14,15,20,12.70
2015,03,14,15,21,14.20
2015,03,14,15,22,14.30
2015,03,14,15,23,12.30
2015,03,14,15,24,11.50
2015,03,14,15,25,14.40
2015,03,14,15,26,14.60
2015,03,14,15,27,13.40
2015,03,14,15,28,8.20
2015,03,14,15,29,17.40
2015,03,14,15,30,13.00
2015,03,14,15,31,6.90
2015,03,14,15,32,5.50
2015,03,14,15,33,8.30
2015,03,14,15,34,9.00
2015,03,14,15,35,5.90
2015,03,14,15,36,8.40
2015,03,14,15,37,5.80
2015,03,14,15,38,6.10
2015,03,14,15,39,6.70
2015,03,14,15,40,6.50
2015,03,14,15,41,11.30
2015,03,14,15,42,10.40
2015,03,14,15,43,5.30
2015,03,14,15,44,10.20
2015,03,14,15,45,12.20
2015,03,14,15,46,10.30
2015,03,14,15,47,8.10
2015,03,14,15,48,4.50
2015,03,14,15,49,8.10
2015,03,14,15,50,5.60
2015,03,14,15,51,9.10
2015,03,14,15,52,5.30
2015,03,14,15,53,3.90
2015,03,14,15,54,9.70
2015,03,14,15,55,9.60
2015,03,14,15,56,11.10
2015,03,14,15,57,10.20
2015,03,14,15,58,12.00
2015,03,14,15,59,6.80
2015,03,14,16,00,11.90
2015,03,14,16,01,11.30
2015,03,14,16,02,6.80
2015,03,14,16,03,4.80
2015,03,14,16,04,13.40
2015,03,14,16,05,10.40
2015,03,14,16,06,6.20
2015,03,14,16,07,12.00
2015,03,14,16,08,13.50
2015,03,14,16,09,7.40
2015,03,14,16,10,12.10
2015,03,14,16,11,11.20
2015,03,14,16,12,15.30
2015,03,14,16,13,12.00
2015,03,14,16,14,10.80
2015,03,14,16,15,13.50
2015,03,14,16,16,10.70
2015,03,14,16,17,14.50
2015,03,14,16,18,10.60
2015,03,14,16,19,10.60
2015,03,14,16,20,14.90
2015,03,14,16,21,14.70
2015,03,14,16,22,10.60
2015,03,14,16,23,13.50
2015,03,14,16,24,12.50
2015,03,14,16,25,11.40
2015,03,14,16,26,9.40
2015,03,14,16,27,16.70
2015,03,14,16,28,14.10
2015,03,14,16,29,10.20
2015,03,14,16,30,11.30
2015,03,14,16,31,13.40
2015,03,14,16,32,12.90
2015,03,14,16,33,3.60
2015,03,14,16,34,13.90
2015,03,14,16,35,11.70
2015,03,14,16,36,10.50
2015,03,14,16,37,13.50
2015,03,14,16,38,13.10
2015,03,14,16,39,14.60
2015,03,14,16,40,15.10
2015,03,14,16,41,14.50
2015,03,14,16,42,15.00
2015,03,14,16,43,14.00
2015,03,14,16,44,16.70
2015,03,14,16,45,15.10
2015,03,14,16,46,15.90
2015,03,14,16,47,10.70
2015,03,14,16,48,12.60
2015,03,14,16,49,18.10
2015,03,14,16,50,15.30
2015,03,14,16,51,15.10
2015,03,14,16,52,12.80
2015,03,14,16,53,14.40
2015,03,14,16,54,19.40
2015,03,14,16,55,17.90
2015,03,14,16,56,18.90
2015,03,14,16,57,14.60
2015,03,14,16,58,16.00
2015,03,14,16,59,17.20
2015,03,14,17,00,17.50
2015,03,14,17,01,17.40
2015,03,14,17,02,22.00
2015,03,14,17,03,20.30
2015,03,14,17,04,20.70
2015,03,14,17,05,21.40
2015,03,14,17,06,22.70
2015,03,14,17,07,21.00
2015,03,14,17,08,24.10
2015,03,14,17,09,18.90
2015,03,14,17,10,21.40
2015,03,14,17,11,15.50
2015,03,14,17,12,10.20
2015,03,14,17,13,12.60
2015,03,14,17,14,15.10
2015,03,14,17,15,15.90
2015,03,14,17,16,15.00
2015,03,14,17,17,16.70
2015,03,14,17,18,16.20
2015,03,14,17,19,16.10
2015,03,14,17,20,11.20
2015,03,14,17,21,12.00
2015,03,14,17,22,13.70
2015,03,14,17,23,13.80
2015,03,14,17,24,14.90
2015,03,14,17,25,19.10
2015,03,14,17,26,18.20
2015,03,14,17,27,17.50
2015,03,14,17,28,13.40
2015,03,14,17,29,14.70
2015,03,14,17,30,7.40
2015,03,14,17,31,6.40
2015,03,14,17,32,11.60
2015,03,14,17,33,15.40
2015,03,14,17,34,11.20
2015,03,14,17,35,13.50
2015,03,14,17,36,15.40
2015,03,14,17,37,7.20
2015,03,14,17,38,5.60
2015,03,14,17,39,5.50
2015,03,14,17,40,8.70
2015,03,14,17,41,13.60
2015,03,14,17,42,12.70
2015,03,14,17,43,8.40
2015,03,14,17,44,11.30
2015,03,14,17,45,13.40
2015,03,14,17,46,19.90
2015,03,14,17,47,13.80
2015,03,14,17,48,13.40
2015,03,14,17,49,12.60
2015,03,14,17,50,8.80
2015,03,14,17,51,8.20
2015,03,14,17,52,14.90
2015,03,14,17,53,11.00
2015,03,14,17,54,13.10
2015,03,14,17,55,12.30
2015,03,14,17,56,13.10
2015,03,14,17,57,13.40
2015,03,14,17,58,9.40
2015,03,14,17,59,9.20
2015,03,14,18,00,13.70
2015,03,14,18,01,7.10
2015,03,14,18,02,7.50
2015,03,14,18,03,3.60
2015,03,14,18,04,7.50
2015,03,14,18,05,12.50
2015,03,14,18,06,5.30
2015,03,14,18,07,5.70
2015,03,14,18,08,12.20
2015,03,14,18,09,10.60
2015,03,14,18,10,11.20
2015,03,14,18,11,12.10
2015,03,14,18,12,15.30
2015,03,14,18,13,16.60
2015,03,14,18,14,12.90
2015,03,14,18,15,15.30
2015,03,14,18,16,16.20
2015,03,14,18,17,8.60
2015,03,14,18,18,11.10
2015,03,14,18,19,9.20
2015,03,14,18,20,7.90
2015,03,14,18,21,5.30
2015,03,14,18,22,7.20
2015,03,14,18,23,8.70
2015,03,14,18,24,10.50
2015,03,14,18,25,10.60
2015,03,14,18,26,12.60
2015,03,14,18,27,13.20
2015,03,14,18,28,13.60
2015,03,14,18,29,12.90
2015,03,14,18,30,13.80
2015,03,14,18,31,14.70
2015,03,14,18,32,13.10
2015,03,14,18,33,8.60
2015,03,14,18,34,9.10
2015,03,14,18,35,10.20
2015,03,14,18,36,16.00
2015,03,14,18,37,14.80
2015,03,14,18,38,11.30
2015,03,14,18,39,10.60
2015,03,14,18,40,13.30
2015,03,14,18,41,13.30
2015,03,14,18,42,12.40
2015,03,14,18,43,12.30
2015,03,14,18,44,15.80
2015,03,14,18,45,10.90
2015,03,14,18,46,11.80
2015,03,14,18,47,13.30
2015,03,14,18,48,15.30
2015,03,14,18,49,10.80
2015,03,14,18,50,15.60
2015,03,14,18,51,14.40
2015,03,14,18,52,8.40
2015,03,14,18,53,8.00
2015,03,14,18,54,9.40
2015,03,14,18,55,14.80
2015,03,14,18,56,10.60
2015,03,14,18,57,11.30
2015,03,14,18,58,12.50
2015,03,14,18,59,5.30
2015,03,14,19,00,3.30
2015,03,14,19,01,7.30
2015,03,14,19,02,10.30
2015,03,14,19,03,10.20
2015,03,14,19,04,11.10
2015,03,14,19,05,6.90
2015,03,14,19,06,3.90
2015,03,14,19,07,4.80
2015,03,14,19,08,2.00
2015,03,14,19,09,2.80
2015,03,14,19,10,1.20
2015,03,14,19,11,2.80
2015,03,14,19,12,2.60
2015,03,14,19,13,3.30
2015,03,14,19,14,3.20
2015,03,14,19,15,2.50
2015,03,14,19,16,2.40
2015,03,14,19,17,3.10
2015,03,14,19,18,3.30
2015,03,14,19,19,1.80
2015,03,14,19,20,1.70
2015,03,14,19,21,2.30
2015,03,14,19,22,2.70
2015,03,14,19,23,2.40
2015,03,14,19,24,2.20
2015,03,14,19,25,1.20
2015,03,14,19,26,0.50
2015,03,14,19,27,0.80
2015,03,14,19,28,0.10
2015,03,14,19,29,0.40
2015,03,14,19,30,0.00
2015,03,14,19,31,0.60
2015,03,14,19,32,1.60
2015,03,14,19,33,2.00
2015,03,14,19,34,3.90
2015,03,14,19,35,4.90
2015,03,14,19,36,4.50
2015,03,14,19,37,4.20
2015,03,14,19,38,3.10
2015,03,14,19,39,2.40
2015,03,14,19,40,3.30
2015,03,14,19,41,3.00
2015,03,14,19,42,5.10
2015,03,14,19,43,4.40
2015,03,14,19,44,3.80
2015,03,14,19,45,3.90
2015,03,14,19,46,3.50
2015,03,14,19,47,4.50
2015,03,14,19,48,5.90
2015,03,14,19,49,8.70
2015,03,14,19,50,14.30
2015,03,14,19,51,16.00
2015,03,14,19,52,6.60
2015,03,14,19,53,3.90
2015,03,14,19,54,3.80
2015,03,14,19,55,4.80
2015,03,14,19,56,6.40
2015,03,14,19,57,13.90
2015,03,14,19,58,12.90
2015,03,14,19,59,9.40
2015,03,14,20,00,12.10
2015,03,14,20,01,11.20
2015,03,14,20,02,4.10
2015,03,14,20,03,9.00
2015,03,14,20,04,8.80
2015,03,14,20,05,10.50
2015,03,14,20,06,16.60
2015,03,14,20,07,14.20
2015,03,14,20,08,11.50
2015,03,14,20,09,13.30
2015,03,14,20,10,15.50
2015,03,14,20,11,12.10
2015,03,14,20,12,8.40
2015,03,14,20,13,14.90
2015,03,14,20,14,13.70
2015,03,14,20,15,11.80
2015,03,14,20,16,12.50
2015,03,14,20,17,11.80
2015,03,14,20,18,16.40
2015,03,14,20,19,9.20
2015,03,14,20,20,15.60
2015,03,14,20,21,9.10
2015,03,14,20,22,8.80
2015,03,14,20,23,10.80
2015,03,14,20,24,13.60
2015,03,14,20,25,14.50
2015,03,14,20,26,15.10
2015,03,14,20,27,10.60
2015,03,14,20,28,11.70
2015,03,14,20,29,11.70
2015,03,14,20,30,16.40
2015,03,14,20,31,10.60
2015,03,14,20,32,7.70
2015,03,14,20,33,11.80
2015,03,14,20,34,10.70
2015,03,14,20,35,10.10
2015,03,14,20,36,10.40
2015,03,14,20,37,11.10
2015,03,14,20,38,13.30
2015,03,14,20,39,13.60
2015,03,14,20,40,15.10
2015,03,14,20,41,11.80
2015,03,14,20,42,12.40
2015,03,14,20,43,9.10
2015,03,14,20,44,15.40
2015,03,14,20,45,12.40
2015,03,14,20,46,10.90
2015,03,14,20,47,15.90
2015,03,14,20,48,14.00
2015,03,14,20,49,11.40
2015,03,14,20,50,12.90
2015,03,14,20,51,13.80
2015,03,14,20,52,7.70
2015,03,14,20,53,14.40
2015,03,14,20,54,11.60
2015,03,14,20,55,8.40
2015,03,14,20,56,15.80
2015,03,14,20,57,14.50
2015,03,14,20,58,16.50
2015,03,14,20,59,14.90
2015,03,14,21,00,15.10
2015,03,14,21,01,17.20
2015,03,14,21,02,18.10
2015,03,14,21,03,8.50
2015,03,14,21,04,11.30
2015,03,14,21,05,14.00
2015,03,14,21,06,9.20
2015,03,14,21,07,10.10
2015,03,14,21,08,11.40
2015,03,14,21,09,10.50
2015,03,14,21,10,12.90
2015,03,14,21,11,7.90
2015,03,14,21,12,9.80
2015,03,14,21,13,15.10
2015,03,14,21,14,6.40
2015,03,14,21,15,11.70
2015,03,14,21,16,11.70
2015,03,14,21,17,16.00
2015,03,14,21,18,12.80
2015,03,14,21,19,15.60
2015,03,14,21,20,11.20
2015,03,14,21,21,12.10
2015,03,14,21,22,10.50
2015,03,14,21,23,13.60
2015,03,14,21,24,12.20
2015,03,14,21,25,11.30
2015,03,14,21,26,6.30
2015,03,14,21,27,12.50
2015,03,14,21,28,11.70
2015,03,14,21,29,10.00
2015,03,14,21,30,8.40
2015,03,14,21,31,9.10
2015,03,14,21,32,12.50
2015,03,14,21,33,13.10
2015,03,14,21,34,14.40
2015,03,14,21,35,12.20
2015,03,14,21,36,12.90
2015,03,14,21,37,15.80
2015,03,14,21,38,14.70
2015,03,14,21,39,14.70
2015,03,14,21,40,10.00
2015,03,14,21,41,13.00
2015,03,14,21,42,9.30
2015,03,14,21,43,12.80
2015,03,14,21,44,11.90
2015,03,14,21,45,14.40
2015,03,14,21,46,14.50
2015,03,14,21,47,15.00